CW2969 Weather Reports


time (UTC)temp
F
wind
direction
speed
knots
gust
knots
rain 1hr
in
rain 24hr
in
rain mn
in
humidity
%
barometer
mb
20260906061015 85 215 0.0 4.3 0.00 0.00 0.00 69 1012.1
20260906060515 85 133 4.3 4.3 0.00 0.00 0.00 69 1012.1
20260906060015 85 207 0.9 5.2 0.00 0.00 0.00 69 1012.1
20260906055515 85 119 3.5 5.2 0.00 0.00 0.00 69 1012.1
20260906055015 86 121 0.0 6.1 0.00 0.00 0.00 68 1012.1
20260906054515 86 168 3.5 6.1 0.00 0.00 0.00 68 1012.1
20260906054014 86 224 2.6 5.2 0.00 0.00 0.00 68 1012.0
20260906053514 86 232 4.3 4.3 0.00 0.00 0.00 67 1011.9
20260906053015 86 335 1.7 2.6 0.00 0.00 0.00 67 1011.9
20260906052515 86 124 0.0 2.6 0.00 0.00 0.00 66 1012.0
20260906052015 86 182 0.0 1.7 0.00 0.00 0.00 66 1012.1
20260906051515 86 153 0.9 2.6 0.00 0.00 0.00 66 1012.1
20260906050014 87 130 0.0 2.6 0.00 0.00 0.00 65 1012.1
20260906045514 87 235 0.9 4.3 0.00 0.00 0.00 65 1011.9
20260906045014 87 133 1.7 5.2 0.00 0.00 0.00 65 1011.9
20260906044514 87 213 2.6 5.2 0.00 0.00 0.00 64 1012.0
20260906044014 87 149 0.9 7.0 0.00 0.00 0.00 64 1012.0
20260906043514 87 140 0.9 7.0 0.00 0.00 0.00 64 1012.0
20260906043014 88 107 0.9 7.8 0.00 0.00 0.00 63 1012.2
20260906042514 88 124 6.1 7.8 0.00 0.00 0.00 63 1012.1
20260906042014 88 125 3.5 3.5 0.00 0.00 0.00 63 1012.1
20260906040514 88 133 2.6 4.3 0.00 0.00 0.00 62 1012.0
20260906035513 89 131 2.6 6.1 0.00 0.00 0.00 61 1011.9
20260906034513 89 139 0.9 3.5 0.00 0.00 0.00 60 1011.8
20260906034013 89 152 0.9 10.4 0.00 0.00 0.00 60 1011.8
20260906033514 89 161 4.3 10.4 0.00 0.00 0.00 60 1011.8
20260906033013 89 162 0.9 7.8 0.00 0.00 0.00 59 1011.8
20260906032513 90 133 1.7 7.8 0.00 0.00 0.00 59 1011.7
20260906032013 90 134 2.6 5.2 0.00 0.00 0.00 58 1011.7
20260906031513 90 201 3.5 6.1 0.00 0.00 0.00 57 1011.6
20260906030513 90 22 0.9 8.7 0.00 0.00 0.00 57 1011.4
20260906025513 91 146 2.6 3.5 0.00 0.00 0.00 55 1011.2
20260906025013 91 177 2.6 9.6 0.00 0.00 0.00 55 1011.0
20260906024513 91 123 4.3 9.6 0.00 0.00 0.00 55 1010.9
20260906024013 91 98 5.2 8.7 0.00 0.00 0.00 54 1010.7
20260906023512 91 144 5.2 5.2 0.00 0.00 0.00 53 1010.6
20260906023012 91 134 2.6 4.3 0.00 0.00 0.00 53 1010.5
20260906022512 92 133 1.7 3.5 0.00 0.00 0.00 53 1010.4
20260906021513 92 111 3.5 7.8 0.00 0.00 0.00 53 1009.9
20260906021012 92 107 2.6 6.1 0.00 0.00 0.00 53 1009.9
20260906020512 92 115 1.7 5.2 0.00 0.00 0.00 52 1009.7
20260906020012 92 130 1.7 5.2 0.00 0.00 0.00 52 1009.8
20260906015512 92 125 1.7 2.6 0.00 0.00 0.00 51 1009.7
20260906015012 93 133 1.7 2.6 0.00 0.00 0.00 51 1009.7
20260906013512 93 119 1.7 7.8 0.00 0.00 0.00 50 1009.6
20260906013012 93 101 0.0 7.8 0.00 0.00 0.00 50 1009.6
20260906012012 93 94 2.6 10.4 0.00 0.00 0.00 49 1009.4
20260906011512 92 87 3.5 6.1 0.00 0.00 0.00 49 1009.4
20260906011012 92 107 2.6 6.1 0.00 0.00 0.00 49 1009.4
20260906010512 92 120 2.6 2.6 0.00 0.00 0.00 49 1009.3
20260906010012 92 75 0.0 8.7 0.00 0.00 0.00 49 1009.3
20260906005512 92 133 2.6 8.7 0.00 0.00 0.00 49 1009.2
20260906005012 93 92 1.7 8.7 0.00 0.00 0.00 48 1009.4
20260906004012 95 188 4.3 9.6 0.00 0.00 0.00 45 1009.4
20260906003011 97 100 12.2 12.2 0.00 0.00 0.00 43 1009.4
20260906002511 97 101 7.0 9.6 0.00 0.00 0.00 42 1009.2
20260906001511 98 126 3.5 10.4 0.00 0.00 0.00 41 1009.1
20260906001011 98 155 6.1 10.4 0.00 0.00 0.00 40 1009.1
20260906000512 98 125 3.5 7.0 0.00 0.00 0.00 40 1009.1
20260906000011 99 145 2.6 6.1 0.00 0.00 0.00 39 1009.1
20260905235511 99 114 2.6 7.8 0.00 0.00 0.00 39 1009.0
20260905235011 99 294 2.6 8.7 0.00 0.00 0.00 38 1009.0
20260905234511 100 61 7.8 8.7 0.00 0.00 0.00 38 1009.1
20260905234011 100 104 5.2 6.1 0.00 0.00 0.00 38 1009.0
20260905233011 100 113 0.9 6.1 0.00 0.00 0.00 38 1008.9
20260905232511 100 253 0.0 0.9 0.00 0.00 0.00 38 1008.9
20260905232011 100 141 0.0 2.6 0.00 0.00 0.00 37 1008.9
20260905231011 100 228 0.9 3.5 0.00 0.00 0.00 38 1009.0
20260905230011 99 241 1.7 2.6 0.00 0.00 0.00 38 1008.9
20260905225011 99 123 0.9 1.7 0.00 0.00 0.00 39 1008.9
20260905224511 99 107 1.7 2.6 0.00 0.00 0.00 39 1008.9
20260905224010 99 113 0.0 3.5 0.00 0.00 0.00 39 1008.9
20260905223511 99 128 3.5 3.5 0.00 0.00 0.00 39 1008.9
20260905223010 99 90 0.0 7.8 0.00 0.00 0.00 38 1008.9
20260905222510 100 105 3.5 7.8 0.00 0.00 0.00 38 1009.0
20260905222010 100 75 2.6 4.3 0.00 0.00 0.00 37 1009.0
20260905221510 100 244 0.0 0.9 0.00 0.00 0.00 37 1009.1
20260905221010 100 94 0.9 3.5 0.00 0.00 0.00 37 1009.2
20260905220510 100 192 1.7 5.2 0.00 0.00 0.00 37 1009.2
20260905220010 101 85 2.6 5.2 0.00 0.00 0.00 37 1009.2
20260905215510 100 338 0.9 2.6 0.00 0.00 0.00 37 1009.1
20260905215010 101 228 1.7 4.3 0.00 0.00 0.00 36 1009.1
20260905214510 101 113 1.7 5.2 0.00 0.00 0.00 37 1009.2
20260905214010 101 107 1.7 5.2 0.00 0.00 0.00 37 1009.1
20260905213510 100 250 0.0 4.3 0.00 0.00 0.00 37 1009.1
20260905213010 100 126 0.0 6.1 0.00 0.00 0.00 37 1009.2
20260905212509 100 98 0.9 6.1 0.00 0.00 0.00 37 1009.2
20260905212009 100 115 1.7 1.7 0.00 0.00 0.00 37 1009.2
20260905211509 100 107 0.9 4.3 0.00 0.00 0.00 37 1009.2
20260905211009 100 132 1.7 4.3 0.00 0.00 0.00 37 1009.4
20260905210510 100 236 0.9 4.3 0.00 0.00 0.00 37 1009.4
20260905210009 100 155 2.6 3.5 0.00 0.00 0.00 38 1009.5
20260905205509 100 311 0.0 3.5 0.00 0.00 0.00 38 1009.5
20260905205009 100 319 2.6 4.3 0.00 0.00 0.00 38 1009.6
20260905204509 99 301 3.5 5.2 0.00 0.00 0.00 39 1009.7
20260905204439 99 315 1.7 7.0 0.00 0.00 0.00 39 1010.0
20260905202509 99 120 0.9 3.5 0.00 0.00 0.00 39 1010.2
20260905202009 99 72 0.9 3.5 0.00 0.00 0.00 39 1010.3
20260905201509 99 98 1.7 6.1 0.00 0.00 0.00 40 1010.4
20260905201009 98 186 1.7 7.8 0.00 0.00 0.00 40 1010.5
20260905200509 99 106 5.2 7.8 0.00 0.00 0.00 41 1010.5
20260905200009 98 139 6.1 7.0 0.00 0.00 0.00 42 1010.7
20260905195509 98 118 2.6 6.1 0.00 0.00 0.00 43 1010.7
20260905195008 98 232 2.6 4.3 0.00 0.00 0.00 44 1010.7
20260905194509 98 326 2.6 5.2 0.00 0.00 0.00 44 1010.8
20260905194008 98 300 4.3 8.7 0.00 0.00 0.00 44 1010.9
20260905193508 98 162 8.7 8.7 0.00 0.00 0.00 44 1011.0
20260905193009 98 144 0.9 3.5 0.00 0.00 0.00 45 1011.1
20260905192508 98 221 0.9 6.1 0.00 0.00 0.00 45 1011.1
20260905192008 98 119 0.0 6.1 0.00 0.00 0.00 45 1011.2
20260905191508 97 167 0.9 7.8 0.00 0.00 0.00 47 1011.2
20260905190008 97 201 1.7 5.2 0.00 0.00 0.00 48 1011.5
20260905185507 96 213 1.7 5.2 0.00 0.00 0.00 48 1011.6
20260905185007 96 119 0.9 4.3 0.00 0.00 0.00 48 1011.7
20260905184507 96 113 3.5 5.2 0.00 0.00 0.00 49 1011.9
20260905184007 95 108 2.6 5.2 0.00 0.00 0.00 49 1011.9
20260905183507 95 228 1.7 3.5 0.00 0.00 0.00 51 1011.9
20260905183007 95 309 1.7 6.1 0.00 0.00 0.00 51 1012.0
20260905182507 95 190 4.3 6.1 0.00 0.00 0.00 51 1012.2
20260905182007 95 197 2.6 3.5 0.00 0.00 0.00 51 1012.3
20260905181507 94 155 0.9 5.2 0.00 0.00 0.00 51 1012.4
20260905181007 94 159 4.3 7.0 0.00 0.00 0.00 52 1012.5
20260905180507 94 111 2.6 7.0 0.00 0.00 0.00 53 1012.7
20260905175507 93 186 3.5 7.0 0.00 0.00 0.00 56 1012.8
20260905175007 93 171 4.3 7.0 0.00 0.00 0.00 57 1012.9
20260905174507 93 302 2.6 7.0 0.00 0.00 0.00 57 1013.0
20260905173507 93 178 3.5 5.2 0.00 0.00 0.00 59 1013.3
20260905173006 92 177 1.7 5.2 0.00 0.00 0.00 59 1013.3
20260905172507 92 347 0.9 4.3 0.00 0.00 0.00 61 1013.3
20260905172006 92 312 0.0 3.5 0.00 0.00 0.00 62 1013.4
20260905170006 91 276 1.7 3.5 0.00 0.00 0.00 64 1013.5
20260905165006 90 236 4.3 8.7 0.00 0.00 0.00 65 1013.5
20260905164506 90 92 1.7 6.1 0.00 0.00 0.00 66 1013.6
20260905164006 90 130 2.6 7.0 0.00 0.00 0.00 66 1013.6
20260905163006 89 96 0.9 7.0 0.00 0.00 0.00 68 1013.7
20260905162506 89 143 0.9 3.5 0.00 0.00 0.00 70 1013.8
20260905162006 88 172 1.7 4.3 0.00 0.00 0.00 70 1013.8
20260905161506 88 224 2.6 6.1 0.00 0.00 0.00 70 1013.8
20260905161006 88 244 1.7 6.1 0.00 0.00 0.00 70 1013.8
20260905155506 87 200 1.7 3.5 0.00 0.00 0.00 72 1013.8
20260905155006 87 298 0.0 7.0 0.00 0.00 0.00 73 1013.8
20260905154005 87 192 0.9 4.3 0.00 0.00 0.00 74 1013.8
20260905153505 87 198 0.9 4.3 0.00 0.00 0.00 74 1013.8
20260905153005 86 136 1.7 4.3 0.00 0.00 0.00 76 1013.8
20260905152505 86 347 1.7 3.5 0.00 0.00 0.00 77 1013.7
20260905152005 85 289 1.7 4.3 0.00 0.00 0.00 77 1013.8
20260905151505 85 192 4.3 4.3 0.00 0.00 0.00 77 1013.9
20260905151005 85 167 0.9 2.6 0.00 0.01 0.00 78 1013.9
20260905150505 84 191 2.6 3.5 0.00 0.01 0.00 78 1013.8
20260905150005 84 269 2.6 3.5 0.00 0.01 0.00 78 1013.8
20260905145504 84 196 1.7 3.5 0.00 0.02 0.00 79 1013.8
20260905145005 84 271 1.7 2.6 0.00 0.02 0.00 79 1013.8
20260905144505 84 323 2.6 2.6 0.00 0.02 0.00 79 1013.8
20260905144005 84 126 0.0 0.9 0.00 0.02 0.00 79 1013.8
20260905143504 84 158 0.0 1.7 0.00 0.02 0.00 80 1013.7
20260905143004 84 227 0.9 4.3 0.00 0.02 0.00 80 1013.8
20260905142504 83 181 1.7 4.3 0.00 0.02 0.00 80 1013.7
20260905142004 83 225 0.0 2.6 0.00 0.02 0.00 80 1013.7
20260905141534 83 136 1.7 2.6 0.00 0.02 0.00 80 1013.6
20260905140034 82 157 1.7 2.6 0.00 0.02 0.00 81 1013.5
20260905135534 81 130 0.0 0.9 0.00 0.02 0.00 81 1013.5
20260905135034 81 178 0.9 0.9 0.00 0.02 0.00 81 1013.5
20260905134534 81 134 0.0 0.0 0.00 0.02 0.00 81 1013.5
20260905134034 81 124 0.0 2.6 0.00 0.02 0.00 81 1013.4
20260905133034 80 124 0.0 3.5 0.00 0.02 0.00 81 1013.3
20260905132534 80 142 2.6 3.5 0.00 0.02 0.00 81 1013.3
20260905132034 80 145 0.0 0.0 0.00 0.02 0.00 81 1013.2
20260905131534 80 104 0.0 2.6 0.00 0.02 0.00 81 1013.2
20260905131034 79 104 2.6 2.6 0.00 0.02 0.00 82 1013.1
20260905130534 79 113 0.0 2.6 0.00 0.02 0.00 82 1013.2
20260905130034 79 142 0.0 0.0 0.00 0.02 0.00 82 1013.0
20260905125533 78 142 0.0 0.0 0.00 0.02 0.00 82 1013.0
20260905125034 78 142 0.0 0.0 0.00 0.02 0.00 82 1012.9
20260905124533 78 142 0.0 0.0 0.00 0.02 0.00 82 1012.8
20260905124034 78 142 0.0 0.0 0.00 0.02 0.00 82 1012.7
20260905123033 78 142 0.0 0.0 0.00 0.02 0.00 82 1012.8
20260905122533 78 142 0.0 0.0 0.00 0.02 0.00 82 1012.8
20260905122033 78 142 0.0 0.0 0.00 0.02 0.00 82 1012.7
20260905121534 78 142 0.0 0.0 0.00 0.02 0.00 82 1012.7
20260905121033 78 142 0.0 0.0 0.00 0.02 0.00 82 1012.6
20260905120033 78 142 0.0 0.0 0.00 0.02 0.00 82 1012.6
20260905115533 78 142 0.0 0.0 0.00 0.02 0.00 82 1012.5
20260905115033 78 142 0.0 0.0 0.00 0.02 0.00 82 1012.4
20260905114533 78 142 0.0 0.0 0.00 0.02 0.00 82 1012.5
20260905114033 78 142 0.0 0.0 0.00 0.02 0.00 82 1012.4
20260905113533 78 142 0.0 0.0 0.00 0.02 0.00 82 1012.4
20260905112533 78 142 0.0 0.0 0.00 0.02 0.00 82 1012.4
20260905112032 78 142 0.0 0.0 0.00 0.02 0.00 81 1012.4
20260905111532 78 142 0.0 0.0 0.00 0.02 0.00 81 1012.3
20260905111033 78 142 0.0 0.0 0.00 0.02 0.00 81 1012.2
20260905110533 78 142 0.0 0.0 0.00 0.02 0.00 81 1012.2
20260905110032 78 142 0.0 0.0 0.00 0.02 0.00 81 1012.2
20260905105532 78 142 0.0 0.0 0.00 0.02 0.00 81 1012.2
20260905105032 78 142 0.0 0.0 0.00 0.02 0.00 81 1012.1
20260905104032 78 142 0.0 0.0 0.00 0.02 0.00 81 1012.1
20260905103532 78 142 0.0 0.0 0.00 0.02 0.00 81 1012.1
20260905103032 78 142 0.0 0.0 0.00 0.02 0.00 81 1012.1
20260905102532 78 142 0.0 0.0 0.00 0.02 0.00 81 1012.1
20260905102032 78 142 0.0 0.0 0.00 0.02 0.00 81 1012.2
20260905101531 78 142 0.0 0.0 0.00 0.02 0.00 81 1012.2
20260905101032 78 142 0.0 0.0 0.00 0.02 0.00 81 1012.1
20260905100532 78 142 0.0 0.0 0.00 0.02 0.00 81 1012.0
20260905100031 79 142 0.0 0.0 0.00 0.02 0.00 81 1012.0
20260905095531 79 142 0.0 0.0 0.00 0.02 0.00 81 1011.9
20260905095002 79 142 0.0 0.0 0.00 0.02 0.00 81 1011.9
20260905094531 79 142 0.0 0.0 0.00 0.02 0.00 80 1011.9
20260905094032 79 142 0.0 0.0 0.00 0.02 0.00 80 1011.9
20260905093031 79 142 0.0 0.0 0.00 0.02 0.00 80 1011.9
20260905092531 79 142 0.0 0.0 0.00 0.02 0.00 80 1011.9
20260905092031 79 142 0.0 0.0 0.00 0.02 0.00 80 1011.9
20260905090531 80 125 0.0 0.0 0.00 0.02 0.00 80 1012.0
20260905090031 80 233 0.0 0.0 0.00 0.02 0.00 80 1012.0
20260905085531 80 204 0.0 0.0 0.00 0.02 0.00 80 1011.9
20260905085031 80 200 0.0 1.7 0.00 0.02 0.00 80 1012.0
20260905084031 80 215 0.0 0.0 0.00 0.02 0.00 80 1012.0
20260905083531 80 207 0.0 0.9 0.00 0.02 0.00 80 1012.0
20260905083030 80 218 0.0 1.7 0.00 0.02 0.00 80 1012.1
20260905082531 80 215 0.9 1.7 0.00 0.02 0.00 80 1012.1
20260905081530 80 157 0.0 2.6 0.00 0.02 0.00 80 1012.2
20260905081030 80 215 0.9 2.6 0.00 0.02 0.00 80 1012.2
20260905080530 80 242 0.0 0.9 0.00 0.02 0.00 79 1012.3
20260905080030 80 197 0.9 0.9 0.00 0.02 0.00 79 1012.3
20260905075030 80 222 0.0 0.0 0.00 0.02 0.00 79 1012.3
20260905073530 80 221 0.0 0.9 0.00 0.02 0.00 79 1012.3
20260905072530 80 194 0.0 0.0 0.00 0.02 0.00 78 1012.5
20260905072029 80 194 0.0 0.9 0.00 0.02 0.00 78 1012.6
20260905071529 81 194 0.0 1.7 0.00 0.02 0.00 78 1012.6
20260905071030 81 194 0.9 3.5 0.00 0.02 0.00 78 1012.6
20260905070530 81 216 0.9 3.5 0.00 0.02 0.00 78 1012.6
20260905065029 81 206 0.0 0.9 0.00 0.02 0.00 77 1012.6
20260905064029 81 192 0.9 1.7 0.00 0.02 0.00 77 1012.6
20260905063529 81 225 0.9 0.9 0.00 0.02 0.00 76 1012.7
20260905062529 81 225 0.0 0.0 0.00 0.02 0.00 76 1012.7